Torna al catalogo

HULIANWANG DIGUI-150

AttivoComunicazioniLEO
NORAD 67526·PAYLOAD·🇨🇳 China

Lanciato Jan 19, 2026 da Wenchang Space Launch Site

Loading…

Prossimi Passaggi (prossime 24 ore)

TLE

AggiornatoSource: Space-Track

Epoca: Sep 14, 2026, 19:21 UTC

1 67526U 26013E   26257.80626244 -.00000105  00000-0  41242-4 0  9996
2 67526  50.0059  34.0654 0000858  85.6644 274.4326 13.29328112 31995

Traccia HULIANWANG DIGUI-150 in tempo reale con AllMySat

Download on the App Store